sat.trackr.live / text

‹ back to catalog

SHIYAN-27 OBJECT D

NORAD 63602 · 2025-078D

PAYLOAD ACTIVE UNKNOWN

§ Identity

Operator
Country
PRC
Launch date
2025-04-18
Launch site
TAISC
Launch vehicle
Mass (kg)
RCS (m²)

External: N2YO · Heavens-Above · Gunter

§ Orbital elements

Epoch: 2026-09-21T22:29:25.287936Z

Period
106.10 min
Inclination
99.6978°
Eccentricity
0.0001040
Mean motion
13.57246289 rev/d
Perigee alt
1,044.9 km
Apogee alt
1,046.5 km
Semi-major
7,423.9 km
B*
6.6889e-5
RAAN
270.7680°
Arg perigee
90.5307°
Mean anomaly
269.5950°
Rev number
7,065

§ Raw data

SHIYAN-27 OBJECT D1 63602U 25078D   26264.93709824  .00000003  00000+0  66889-4 0  99942 63602  99.6978 270.7680 0001040  90.5307 269.5950 13.57246289 70657

JSON: /api/v1/satellites/63602 · /tle

For live sub-satellite position, see the globe view (requires WebGL).

§ Visibility from observer

Set your observer location to see the next 7 days of passes ≥ 10°. The values pass through the URL so the page stays shareable.

No JS? Fill the form by hand. The geolocation button needs JavaScript.